DateTimeUTC,F1_A11,F1_S11,BsB_S11,BsG_S11,BsR_S11,BbsB_S11,BbsG_S11,BbsR_S11,BaB_A11,BaG_A11,BaR_A11,Tu_S11,T_S11,Uu_S11,U_S11,P_S11,T1_A11
2021-08-08T02:00:00Z,00000200,20000000,,,,,,,-000.40,0000.03,0000.02,18.6,25.4,05.9,03.9,0666.2,31.1
2021-08-08T02:01:00Z,00000200,20000000,,,,,,,0000.43,0000.05,0000.43,18.6,25.4,05.9,03.9,0666.2,31.1
2021-08-08T02:02:00Z,00000200,20000000,,,,,,,0000.05,0000.11,-000.02,18.6,25.4,05.8,03.8,0666.2,31.1
2021-08-08T02:03:00Z,00000200,60000000,,,,,,,0000.73,0000.65,0000.63,18.6,25.4,05.6,03.7,0666.2,31.1
2021-08-08T02:04:00Z,00000200,40000000,0001.35,0001.64,0000.70,0000.76,0000.58,0000.32,-000.32,0000.19,-000.16,18.7,25.1,05.8,03.9,0667.1,31.0
2021-08-08T02:05:00Z,00000200,00000000,0001.36,0000.96,0000.95,-000.24,0000.36,-000.02,0000.17,0000.19,0000.02,18.7,25.1,05.8,03.9,0667.2,31.0
2021-08-08T02:06:00Z,00000200,00000000,0000.73,0001.02,0000.54,-000.15,0000.35,-000.57,0000.44,-000.26,0000.18,18.7,25.1,05.9,04.0,0667.1,31.1
2021-08-08T02:07:00Z,00000200,00000000,0000.55,0001.04,0000.40,0000.17,0000.56,-000.25,0000.57,0000.54,0000.23,18.7,25.1,06.0,04.1,0667.0,31.0
2021-08-08T02:08:00Z,00000200,00000000,0001.99,0001.07,0000.61,0000.15,0000.49,0000.09,0000.22,0000.20,0000.57,18.7,25.1,06.1,04.1,0667.0,31.0
2021-08-08T02:09:00Z,00000200,00000000,0001.18,0001.14,0000.79,0000.52,0000.18,0000.52,0000.16,0000.96,0000.40,18.8,25.1,06.1,04.2,0667.0,31.1
2021-08-08T02:10:00Z,00000200,00000000,0000.97,0001.13,0000.45,-000.18,0000.35,0000.08,0000.32,-000.17,-000.03,18.8,25.2,06.0,04.1,0667.1,31.1
2021-08-08T02:11:00Z,00000200,00000000,0001.44,0001.12,0000.29,0000.04,0000.51,-000.23,0000.68,0000.37,0000.71,18.8,25.2,06.1,04.1,0667.1,31.1
2021-08-08T02:12:00Z,00000200,00000000,0001.32,0000.96,0000.60,0000.49,0000.28,0000.26,-000.10,0000.20,0000.26,18.9,25.2,06.2,04.2,0667.1,31.1
2021-08-08T02:13:00Z,00000200,00000000,0000.90,0001.10,0000.74,-000.17,0000.29,0000.19,0000.71,0000.65,0000.24,18.9,25.2,06.2,04.2,0666.9,31.1
2021-08-08T02:14:00Z,00000200,00000000,0000.92,0001.19,0000.65,0000.63,0000.19,-000.03,-000.08,-000.12,0000.04,18.9,25.2,06.2,04.2,0667.0,31.1
2021-08-08T02:15:00Z,00000200,00000000,0001.19,0001.45,0000.86,0000.40,0000.45,0000.08,0000.57,0000.76,0000.42,18.9,25.2,06.2,04.2,0667.1,31.1
2021-08-08T02:16:00Z,00000200,00000000,0001.35,0000.78,0000.60,0000.20,0000.29,0000.34,0000.06,0000.09,0000.12,18.9,25.2,06.2,04.2,0667.0,31.1
2021-08-08T02:17:00Z,00000200,00000000,0001.76,0000.94,0000.56,-000.08,0000.49,0000.10,0000.09,0000.19,0000.02,18.8,25.2,06.2,04.2,0667.1,31.1
2021-08-08T02:18:00Z,00000200,00000000,0001.24,0001.00,0000.64,0000.40,0000.18,-000.26,0000.51,0000.17,0000.37,18.8,25.1,06.2,04.2,0667.1,31.0
2021-08-08T02:19:00Z,00000200,00000000,0001.20,0001.18,0001.05,-000.12,0000.48,-000.21,0000.02,0000.05,0000.58,18.8,25.1,06.2,04.2,0667.1,31.0
2021-08-08T02:20:00Z,00000200,00000000,0001.21,0001.04,0000.68,0000.24,0000.46,0000.04,0000.25,0000.47,0000.04,18.8,25.1,06.3,04.3,0667.1,31.1
2021-08-08T02:21:00Z,00000200,00000000,0001.02,0001.15,0000.51,0000.18,-000.07,0000.19,0000.43,0000.09,0000.26,18.8,25.1,06.2,04.2,0667.1,31.0
2021-08-08T02:22:00Z,00000200,00000000,0001.27,0001.09,0000.54,0000.60,0000.36,0000.01,0000.40,0000.58,-000.12,18.8,25.1,06.3,04.3,0667.1,31.0
2021-08-08T02:23:00Z,00000200,00000000,0001.23,0001.07,0000.68,0000.39,0000.25,0000.04,0000.21,0000.03,0000.38,18.7,25.1,06.3,04.3,0667.2,31.0
2021-08-08T02:24:00Z,00000200,00000000,0000.90,0001.10,0000.84,0000.17,0000.55,0000.10,0000.27,0000.33,0000.53,18.7,25.1,06.3,04.3,0667.1,31.0
2021-08-08T02:25:00Z,00000200,00000000,0001.22,0001.09,0000.44,0000.02,0000.34,-000.09,0000.27,0000.24,0000.19,18.7,25.1,06.3,04.3,0667.1,31.0
2021-08-08T02:26:00Z,00000200,00000000,0001.25,0001.42,0000.58,0000.01,0000.10,0000.19,0000.18,0000.23,0000.28,18.7,25.1,06.4,04.3,0667.1,31.0
2021-08-08T02:27:00Z,00000200,00000000,0000.72,0000.79,0000.61,0000.06,0000.43,0000.07,0000.16,0000.54,0000.34,18.7,25.0,06.3,04.3,0667.1,31.1
2021-08-08T02:28:00Z,00000200,00000000,0000.97,0001.03,0000.55,0000.09,0000.16,-000.12,0000.47,-000.01,-000.24,18.7,25.0,06.4,04.3,0667.1,31.0
2021-08-08T02:29:00Z,00000200,00000000,0001.33,0001.00,0000.86,-000.05,0000.54,0000.12,0000.17,0000.01,0000.48,18.7,25.0,06.4,04.4,0667.1,31.0
2021-08-08T02:30:00Z,00000200,00000000,0001.25,0001.12,0000.56,0000.11,0000.02,-000.20,0000.54,0000.43,-000.01,18.7,25.0,06.4,04.4,0667.1,31.0
2021-08-08T02:31:00Z,00000200,00000000,0001.00,0001.22,0000.37,-000.13,0000.36,-000.27,-000.51,0000.52,0000.32,18.7,25.0,06.5,04.4,0667.1,31.0
2021-08-08T02:32:00Z,00000200,00000000,0001.11,0001.12,0000.80,0000.65,0000.15,-000.26,0000.76,0000.25,0000.65,18.7,25.0,06.5,04.4,0667.0,31.0
2021-08-08T02:33:00Z,00000200,00000000,0002.07,0000.87,0000.85,0000.45,0000.01,0000.20,0000.36,0000.05,-000.44,18.6,25.0,06.4,04.4,0667.0,31.0
2021-08-08T02:34:00Z,00000200,00000000,0001.08,0001.14,0000.50,-000.26,0000.38,0000.09,0000.23,0000.07,0000.79,18.7,25.0,06.4,04.4,0667.1,31.0
2021-08-08T02:35:00Z,00000200,00000000,0001.69,0001.15,0000.75,0000.33,0000.27,0000.06,0000.27,0000.13,-000.00,18.7,25.0,06.4,04.4,0667.1,31.0
2021-08-08T02:36:00Z,00000200,00000000,0001.39,0001.24,0000.74,-000.19,0000.36,0000.22,0000.53,0000.28,0000.23,18.6,25.0,06.4,04.3,0667.0,31.1
2021-08-08T02:37:00Z,00000200,00000000,0001.47,0000.99,0000.68,0000.40,0000.05,-000.07,-000.22,0000.58,0000.48,18.6,25.0,06.5,04.4,0667.0,31.0
2021-08-08T02:38:00Z,00000200,00000000,0001.20,0001.04,0000.81,-000.26,0000.23,0000.03,0000.36,-000.09,-000.16,18.7,25.0,06.4,04.3,0667.0,31.0
2021-08-08T02:39:00Z,00000200,00000000,0001.76,0001.23,0000.67,0000.41,0000.12,0000.39,-000.03,0000.35,0000.64,18.7,25.0,06.5,04.4,0667.0,31.1
2021-08-08T02:40:00Z,00000200,00000000,0002.31,0001.00,0000.46,-000.11,0000.22,0000.41,0000.60,0000.39,0000.17,18.7,25.1,06.4,04.4,0667.0,31.0
2021-08-08T02:41:00Z,00000200,00000000,0001.39,0001.08,0000.71,0000.22,0000.17,-000.08,-000.04,0000.06,0000.16,18.7,25.0,06.5,04.4,0667.0,31.0
2021-08-08T02:42:00Z,00000200,00000000,0001.64,0001.37,0000.65,0001.28,0000.53,0000.20,0000.57,0000.49,-000.01,18.7,25.0,06.4,04.4,0667.0,31.0
2021-08-08T02:43:00Z,00000200,00000000,0001.22,0001.36,0000.98,-000.02,0000.35,0000.16,0000.21,0000.18,0000.28,18.7,25.0,06.4,04.4,0667.0,31.0
2021-08-08T02:44:00Z,00000200,00000000,0001.55,0001.20,0000.72,-000.26,0000.36,-000.12,0000.12,0000.31,0000.22,18.7,25.0,06.4,04.4,0667.0,31.0
2021-08-08T02:45:00Z,00000200,00000000,0001.96,0001.39,0000.90,-000.02,0000.35,-000.04,0000.40,0000.10,0000.41,18.7,25.0,06.4,04.3,0667.0,31.0
2021-08-08T02:46:00Z,00000200,00000000,0001.41,0001.13,0000.77,0000.19,0000.32,0000.23,0000.32,0000.31,0000.02,18.7,25.0,06.4,04.4,0667.0,31.0
2021-08-08T02:47:00Z,00000200,00000000,0001.92,0001.51,0001.03,-000.02,0000.53,0000.22,0000.38,0000.66,0000.56,18.7,25.0,06.3,04.3,0667.0,31.0
2021-08-08T02:48:00Z,00000200,00000000,0001.01,0001.25,0000.72,0000.18,0000.61,-000.12,0000.02,-000.16,0000.03,18.7,25.0,06.3,04.3,0666.9,31.0
2021-08-08T02:49:00Z,00000200,00000000,0002.35,0001.52,0000.80,0000.30,0000.40,-000.10,0000.09,0000.22,0000.44,18.7,25.0,06.3,04.3,0666.9,31.0
2021-08-08T02:50:00Z,00000200,00000000,0001.81,0001.37,0001.01,0000.44,0000.23,0000.15,0000.36,0000.42,0000.26,18.7,25.0,06.3,04.3,0666.9,31.0
2021-08-08T02:51:00Z,00000200,00000000,0001.80,0001.13,0001.11,0000.13,0000.26,-000.01,0000.64,0000.27,0000.20,18.6,25.0,06.3,04.3,0667.0,31.0
2021-08-08T02:52:00Z,00000200,00000000,0001.60,0001.27,0000.75,-000.17,0000.41,0000.01,0000.28,0000.19,-000.18,18.6,25.0,06.3,04.3,0666.9,31.0
2021-08-08T02:53:00Z,00000200,00000000,0001.64,0001.33,0000.87,0000.23,0000.13,0000.19,0000.50,0000.62,0000.67,18.6,25.0,06.4,04.4,0666.9,31.0
2021-08-08T02:54:00Z,00000200,00000000,0001.38,0001.68,0000.83,-000.04,0000.25,-000.07,0000.29,0000.21,0000.44,18.6,25.0,06.3,04.3,0666.9,31.0
2021-08-08T02:55:00Z,00000200,00000000,0001.28,0001.49,0000.88,0000.35,0000.28,-000.02,0000.24,0000.58,0000.17,18.6,25.0,06.3,04.3,0666.9,31.0
2021-08-08T02:56:00Z,00000200,00000000,0001.61,0001.52,0000.80,0000.68,0000.42,-000.08,0000.31,-000.01,0000.54,18.6,25.0,06.4,04.4,0666.9,31.0
2021-08-08T02:57:00Z,00000200,40000000,,,,,,,0000.04,0000.09,-000.39,18.7,25.0,06.3,04.3,0666.9,31.0
2021-08-08T02:58:00Z,00000200,60000000,,,,,,,-000.12,-000.40,-000.24,18.4,25.1,06.2,04.1,0666.0,31.0
2021-08-08T02:59:00Z,00000200,20000000,,,,,,,0000.22,0000.20,0000.16,18.4,25.2,06.2,04.1,0666.0,31.0
